星链-5034 (STARLINK-5034 )

导读 | 豆包AI

STARLINK-5034是美国太空探索技术公司星链星座的成员,于2022年9月24日发射升空,属于星链网络第二次大规模组网阶段的卫星。它依托一箭多星发射方式入轨,通过星链低轨星座架构,为全球提供高速低延迟互联网服务,目前已在轨正常运行近四年,支撑起星链全球通信覆盖能力。

基本信息
目录编号:
53888
目录名称:
STARLINK-5034
国际标识:
2022-119C
轨道中心:
EARTH
卫星名称:
星链-5034
卫星全名:
星链-5034 (STARLINK-5034 )
卫星状态:
在轨 (已飞行1314 天)
发射日期:
2022-09-24 UTC
国别 :
美国 (US)
星等 :
--
轨道信息
数据来源 国际轨道数据
星历时间: 2026-04-30T14:00:02+0800
10小时前
查看轨道信息
半长轴: 6754.675km
偏心率: 0.0001448
轨道倾角: 53.217°
近地点辐角 83.054°
升交点赤经 81.906°
平近点角 181.138°
近地点: 375.559km
远地点: 377.517km
周期: 92.080分钟
每日圈数: 15.638537
详细信息
固有亮度:
5
最大亮度:
2.5
卫星平台:
Starlink v1.5
覆盖范围:
全球
运营商:
太空探索技术公司
运营商所在国:
美国
制造商(研发单位):
太空探索技术公司
制造商所在国:
美国
使用方式:
暂无
卫星简介
星链(Starlink)计划是由太空探索技术公司(SpaceX)提出的一个巨型低轨卫星互联网星座项目,计划在2019年至2024年间在太空搭建由约1.2万颗卫星组成的“星链”网络,其中1584颗将部署在地球上空550千米处的近地轨道,并从2020年开始工作。该卫星仍在工作。
2D轨道图
3D轨道图
轨道高度分析图
轨道倾角分析图
轨道综合分析图
查看轨道综合分析图